Dewpoint
54 44 30 32 25 18 8 4 15 22 39 48 42 39 43 48 44 46 61 64 64 64 65 67 70 70 70 70 71 71 71 71 71 71 70 70 70 70 70 70 70 69 69 69 69 69 69 68 68
29 23 27 28 20 9 7 19 22 31 50 50 49 47 47 49 55 59 60 63 63 64 66 67 69 68 68 68 68 69 70 70 70 71 71 71 71 70 70 69 69 69 70 70 70 70 70 69 69
31 23 24 22 19 12 9 19 27 43 50 48 47 51 50 53 57 59 62 63 63 64 66 68 68 67 67 67 67 68 69 69 70 70 70 69 68 68 68 68 68 68 68 68 68 69 69 70 69
17 19 24 16 11 14 17 19 33 44 49 48 48 48 52 57 57 60 62 62 64 64 66 66 66 66 65 66 66 66 67 67 67 67 67 67 67 66 65 65 65 65 64 64 64 64 65 65 66
17 18 15 16 14 12 20 19 32 38 45 48 49 50 52 57 59 59 59 61 62 63 64 63 64 64 64 64 64 64 64 64 64 64 65 65 64 63 62 62 61 61 61 61 60 60 61 61 62
14 16 13 9 10 16 17 27 40 41 46 49 49 50 53 57 57 56 55 56 61 63 63 62 61 60 61 61 61 61 61 62 62 62 62 61 60 60 59 59 59 58 58 57 57 57 57 57 58
16 16 13 11 11 14 16 32 40 42 44 46 50 47 54 56 57 55 52 53 58 62 63 62 59 58 58 58 58 58 58 58 59 59 58 57 56 56 55 55 55 55 54 54 53 53 53 53 53
17 16 14 12 10 12 21 27 40 45 41 47 47 45 51 56 55 53 52 52 55 57 60 60 60 58 56 55 55 55 55 55 55 54 52 53 53 53 52 51 52 52 51 50 50 50 50 50 50
17 16 14 13 13 14 19 25 34 39 41 44 47 47 52 56 55 53 53 52 52 52 53 57 56 56 55 51 52 52 52 51 53 51 48 52 49 48 48 48 47 48 47 46 46 47 48 51 53
19 17 17 16 15 16 15 17 23 35 34 40 46 49 53 54 53 52 51 51 52 51 50 52 54 52 50 44 50 50 48 49 50 50 50 49 50 46 44 46 44 44 46 44 43 44 51 50 41
23 21 18 16 16 15 13 16 19 24 24 34 44 48 52 52 52 52 51 51 51 52 51 51 53 53 48 47 45 43 45 46 48 51 50 50 47 48 45 44 43 44 46 41 43 41 40 44 43
21 22 23 19 20 18 19 16 19 19 22 33 39 48 50 51 52 51 50 50 50 49 48 48 50 52 51 45 44 45 44 45 44 47 50 47 45 47 47 44 43 42 41 43 42 39 44 43 42
21 21 23 22 22 22 22 21 18 18 21 34 32 45 47 50 51 51 50 48 48 47 46 47 50 51 50 49 47 47 46 45 45 45 48 46 44 46 45 45 42 42 41 40 41 40 40 40 40
24 24 22 24 25 26 24 23 21 22 21 29 35 40 44 48 50 50 48 47 47 45 46 48 49 50 49 49 50 48 47 46 44 45 46 47 45 46 43 43 41 40 41 41 40 41 39 39 38
25 22 19 21 23 24 26 24 23 24 28 27 33 35 41 46 48 48 47 47 45 44 46 48 49 50 50 50 48 47 44 44 43 43 46 46 45 45 44 42 41 41 42 42 40 41 39 37 35
22 24 21 18 22 21 23 17 21 25 26 28 30 35 41 45 47 46 47 46 44 43 46 47 45 49 49 49 46 44 45 44 43 42 43 44 44 44 42 40 41 43 41 39 39 39 38 37 36
23 19 20 19 22 21 21 19 21 24 25 26 28 36 41 44 46 46 45 44 43 43 45 45 48 48 48 48 46 47 46 43 41 41 41 43 42 42 40 40 41 42 39 40 39 39 40 38 36
21 19 16 17 19 21 21 20 20 21 22 25 27 35 40 43 44 44 44 43 41 43 45 46 47 48 48 47 46 44 43 41 41 39 40 41 40 41 39 39 41 39 39 39 39 41 39 38 36
24 22 21 21 21 21 21 20 20 20 20 23 26 31 38 41 43 43 43 43 41 44 44 46 47 48 46 44 43 43 41 40 39 39 40 40 40 40 40 37 38 39 39 39 40 39 39 36 37
24 22 21 21 21 20 19 19 19 19 20 22 25 27 34 40 41 42 42 42 42 43 43 44 46 46 44 42 42 43 41 40 39 39 39 39 39 39 36 39 37 39 37 39 39 39 36 35 37
23 22 21 19 19 17 16 14 15 16 19 20 23 25 29 37 41 41 41 42 42 42 43 43 44 44 43 43 43 42 42 41 38 36 35 37 37 37 38 38 38 38 37 36 37 38 37 34 35
19 17 18 17 18 15 16 11 13 12 16 21 23 27 29 33 40 40 41 41 42 42 44 42 43 43 43 43 41 41 38 36 37 35 35 35 36 35 36 38 38 38 36 37 35 35 36 36 33
18 19 19 19 20 21 15 10 10 11 14 17 25 27 31 33 37 39 41 41 41 42 42 42 42 41 42 42 42 41 39 39 37 36 37 36 35 35 35 36 37 37 35 36 36 36 36 34 33
17 18 19 20 19 17 16 13 12 13 20 22 28 29 30 33 35 38 40 40 40 41 42 42 40 39 41 42 42 41 40 37 36 35 34 32 31 32 34 35 36 35 32 32 34 35 35 34 33
19 20 17 14 13 11 9 13 15 16 21 23 26 28 30 32 35 37 38 38 39 40 41 41 39 38 40 41 40 40 39 38 37 35 32 28 29 30 33 34 33 29 30 30 32 32 32 31 30
17 16 16 12 12 11 10 11 10 18 21 26 28 30 33 34 36 36 37 38 38 40 40 40 38 38 39 39 39 39 38 36 34 32 30 27 28 30 32 31 29 27 28 29 29 27 27 30 28
17 18 18 17 17 16 10 10 11 13 18 28 27 31 34 34 35 36 37 39 39 39 41 41 38 37 38 39 39 38 37 35 33 34 31 29 30 29 29 29 27 26 27 27 27 26 27 27 28
16 15 15 16 15 14 12 11 10 22 22 25 31 30 35 34 35 36 37 39 39 40 41 41 39 37 38 39 38 37 36 35 33 30 29 30 30 29 28 26 26 25 26 26 26 25 26 26 25
14 16 19 17 17 16 16 17 23 25 26 27 31 34 34 37 35 37 43 41 40 40 40 41 39 37 38 37 37 37 35 33 31 29 29 30 30 28 26 24 23 23 24 25 25 25 25 25 26
16 15 14 15 14 21 25 29 27 28 27 24 23 27 30 32 39 37 39 43 48 46 40 40 39 38 38 37 36 36 34 32 30 28 28 29 28 27 26 24 22 22 23 24 24 23 24 24 25
Lifted_Index
8 8 7 6 5 3 1 0 1 1 -1 -2 -1 -1 -2 -2 -2 -1 -1 -1 -1 -1 -2 -2 -3 -3 -3 -3 -4 -4 -4 -5 -5 -5 -6 -6 -6 -5 -5 -5 -5 -4 -4 -4 -4 -5 -5 -4 -4
9 8 7 6 4 2 0 0 1 -0 -2 -2 -2 -2 -2 -2 -2 -1 -1 -1 -1 -1 -2 -2 -2 -2 -2 -3 -3 -4 -4 -4 -5 -5 -5 -5 -5 -5 -5 -4 -4 -4 -4 -4 -4 -4 -4 -4 -4
9 8 7 5 3 1 0 1 1 -1 -2 -2 -2 -2 -2 -2 -2 -2 -1 -1 -1 -1 -2 -2 -2 -1 -1 -1 -2 -3 -3 -4 -4 -5 -5 -5 -4 -4 -4 -3 -3 -3 -3 -3 -3 -3 -3 -3 -4
9 8 6 4 2 1 2 2 1 -1 -2 -2 -3 -2 -2 -2 -2 -1 -1 -1 -1 -1 -1 -1 -1 -1 -1 -1 -1 -2 -2 -3 -3 -3 -3 -3 -3 -3 -3 -3 -2 -2 -2 -2 -1 -1 -2 -2 -2
8 6 5 3 1 1 3 3 1 -1 -2 -3 -3 -3 -2 -1 -1 -1 -1 -1 -1 -1 -1 -1 -1 -1 -1 -1 -2 -2 -2 -3 -3 -2 -2 -2 -2 -2 -2 -1 -1 -1 -0 0 0 0 -0 -1 -1
6 5 3 2 1 2 3 3 1 -1 -2 -3 -3 -3 -2 -1 -1 -2 -2 -2 -2 -2 -1 -1 -1 -1 -2 -2 -2 -2 -2 -2 -2 -2 -2 -1 0 1 1 2 2 3 3 4 4 4 3 3 2
5 4 3 2 1 2 3 2 0 -2 -2 -3 -3 -3 -2 -1 -1 -2 -2 -3 -2 -2 -1 -1 -1 -1 -2 -1 -1 -1 -0 0 1 1 2 3 4 5 6 7 7 8 8 8 9 9 8 8 7
5 4 3 2 1 2 3 3 1 -1 -2 -2 -2 -2 -2 -1 -1 -1 -2 -2 -2 -2 -1 -1 -0 -0 0 1 2 3 4 5 6 6 7 7 8 8 9 10 10 11 11 11 12 12 12 11 10
5 4 2 2 2 3 4 4 2 0 -0 -1 -1 -1 -1 -1 0 -0 -1 -1 -1 -1 -1 -0 1 1 3 5 6 7 8 8 9 9 9 9 9 9 10 11 11 12 12 12 13 13 12 11 11
5 3 3 3 4 4 5 4 3 2 1 -0 -0 -1 -1 0 1 1 0 -0 -0 -0 0 1 2 4 5 7 8 8 9 9 9 9 9 9 9 10 10 11 11 12 12 12 12 12 12 11 11
5 4 4 4 5 5 5 5 4 3 2 1 -0 -0 -0 0 1 1 1 1 1 1 2 2 4 5 7 7 8 8 9 9 9 9 9 9 9 10 10 10 11 11 11 11 11 11 11 11 10
5 5 4 5 5 5 5 5 5 4 3 2 1 0 -0 -0 -0 0 1 1 2 2 3 4 5 6 7 8 8 9 9 9 10 10 10 10 10 10 10 10 10 11 11 11 11 11 11 11 11
5 5 5 5 5 5 5 5 5 5 4 4 3 1 0 -0 -1 -0 1 2 3 3 4 5 6 7 7 8 8 9 9 10 10 11 11 10 10 10 10 10 11 11 11 11 11 11 11 11 11
5 5 5 5 4 4 4 5 5 5 5 4 3 2 1 0 -0 0 1 3 4 5 5 7 7 7 8 8 9 9 10 10 11 11 11 11 11 11 11 11 11 11 12 12 11 11 11 11 11
5 5 5 4 4 4 4 4 4 4 4 4 3 3 1 1 0 1 2 3 5 5 6 7 8 8 8 9 9 10 10 10 11 11 12 12 12 12 11 12 12 12 12 12 12 11 11 11 11
5 4 3 3 4 5 4 4 4 4 4 4 3 3 2 1 1 2 3 4 5 6 7 7 8 8 8 9 9 10 10 11 11 12 12 13 13 13 12 12 12 12 12 12 12 11 11 11 11
3 3 3 3 4 4 4 4 4 4 4 4 3 2 1 1 1 2 4 5 6 6 7 7 7 8 8 9 9 10 10 11 11 12 12 13 13 13 13 13 13 12 12 12 12 12 11 11 11
3 3 3 3 3 4 4 4 4 4 4 4 3 2 1 1 2 3 4 5 6 7 7 7 7 7 8 9 9 10 10 11 12 12 13 13 13 13 13 13 13 12 12 12 12 12 11 11 11
3 3 3 3 3 3 4 4 4 3 3 4 3 3 2 2 2 3 5 6 6 6 7 7 7 7 8 8 9 9 10 11 12 12 13 13 13 13 13 13 13 13 12 13 12 12 12 11 11
3 3 3 3 3 4 4 4 4 3 3 3 3 3 2 2 3 4 5 5 6 6 6 6 7 7 7 8 8 9 10 11 11 12 12 13 13 13 13 13 13 13 13 13 13 13 12 12 11
3 3 3 4 4 4 4 4 3 3 3 3 4 3 3 3 3 4 5 5 5 5 6 6 6 6 7 7 8 8 9 10 11 11 12 12 13 13 14 14 14 13 13 13 13 13 12 11 11
3 4 4 4 4 3 3 3 3 3 2 2 3 3 3 3 3 4 4 4 5 5 6 6 6 6 6 7 7 8 8 9 10 11 11 12 13 14 14 14 14 14 14 13 13 13 12 11 11
4 4 5 4 3 3 3 3 3 2 1 1 2 3 3 2 2 3 4 5 5 5 6 6 6 6 6 6 7 7 7 8 9 10 11 12 13 14 14 14 14 14 14 13 13 12 12 12 12
5 5 4 3 3 2 2 2 2 1 1 1 1 2 2 2 2 3 4 4 5 5 5 6 6 6 6 6 6 7 7 8 9 10 10 11 13 14 14 14 14 14 14 14 13 13 13 13 13
4 4 3 2 1 1 1 1 1 1 1 2 2 2 2 2 1 2 3 4 4 5 5 5 6 6 6 6 6 7 7 8 9 10 10 12 13 14 14 14 15 15 15 14 14 14 14 14 14
4 3 2 1 1 1 1 1 1 1 1 1 1 1 1 1 1 1 2 3 3 4 5 5 5 5 5 5 6 7 8 8 9 10 11 12 13 14 14 15 15 16 15 15 15 15 15 15 15
3 3 2 1 1 1 1 1 1 1 1 1 1 1 1 1 1 1 1 2 3 4 4 5 5 5 5 5 6 7 8 9 10 11 12 13 14 14 15 15 16 16 16 15 15 15 15 15 15
3 2 2 1 0 -0 0 0 0 0 0 0 0 0 0 0 0 1 1 2 2 3 4 4 5 5 4 5 5 6 8 9 10 11 12 13 14 14 15 15 16 16 16 15 15 15 15 15 14
2 2 1 0 -1 -1 -1 -1 -0 -0 0 0 1 0 0 0 0 1 1 1 2 3 3 4 4 4 4 4 5 6 8 9 10 12 13 14 14 15 15 16 16 16 16 15 15 15 15 14 14
2 2 1 0 -0 -1 -1 -1 -1 -1 -0 1 1 1 1 0 1 1 1 1 2 2 3 3 4 3 3 4 5 6 8 9 10 12 13 14 14 15 15 16 16 16 15 15 15 15 15 14 14